1486670400.55,29716,10.44,73804.0,-8.17,-10.79,-11.89,0,*5B
1486670401.82,29717,10.44,73806.8,-8.17,-10.79,-11.89,0,*5A
1486670403.03,29718,10.44,73804.8,-8.17,-10.93,-12.03,0,*50
1486670404.24,29719,10.44,73800.0,-8.17,-10.85,-12.03,0,*56
1486670405.5,29720,10.44,73802.0,-8.17,-10.67,-11.51,0,*54
1486670406.76,29721,10.44,73798.5,-8.17,-10.63,-11.51,0,*51
1486670407.97,29722,10.44,73800.8,-8.17,-10.49,-11.23,0,*5F
1486670409.21,29723,10.44,73800.3,-8.17,-10.67,-11.45,0,*52
1486670410.43,29724,10.44,73802.0,-8.17,-10.85,-11.77,0,*58
1486670411.67,29725,10.44,73804.0,-8.17,-10.93,-11.93,0,*54
1486670412.91,29726,10.44,73802.5,-8.19,-10.93,-12.03,0,*53
1486670414.14,29727,10.44,73802.8,-8.17,-10.85,-11.81,0,*52
1486670415.42,29728,10.44,73806.0,-8.19,-10.63,-11.51,0,*56
1486670416.71,29729,10.44,73804.5,-8.19,-10.63,-11.37,0,*57
1486670417.96,29730,10.44,73804.3,-8.19,-10.85,-11.77,0,*53
1486670419.22,29731,10.44,73802.5,-8.19,-10.93,-11.89,0,*54
1486670420.48,29732,10.44,73808.8,-8.19,-10.93,-11.89,0,*57
1486670421.77,29733,10.44,73802.8,-8.19,-10.79,-11.63,0,*56
1486670423.06,29734,10.44,73802.0,-8.19,-10.75,-11.63,0,*5D
1486670424.3,29735,10.44,73800.8,-8.21,-10.85,-11.63,0,*58
1486670425.58,29736,10.44,73804.3,-8.19,-10.79,-11.77,0,*56
1486670426.86,29737,10.44,73804.5,-8.19,-10.79,-11.77,0,*57
1486670428.15,29738,10.44,73802.5,-8.19,-10.75,-11.63,0,*51
1486670429.4,29739,10.44,73806.5,-8.19,-10.75,-11.45,0,*54
1486670430.69,29740,10.5,73810.8,-8.19,-10.67,-11.51,0,*5C
1486670431.97,29741,10.44,73806.8,-8.19,-10.75,-11.77,0,*5A
1486670433.25,29742,10.44,73808.0,-8.19,-10.79,-11.77,0,*55
1486670434.53,29743,10.44,73810.0,-8.19,-10.75,-11.81,0,*51
1486670435.79,29744,10.5,73808.8,-8.21,-10.79,-11.67,0,*59
1486670437.05,29745,10.44,73812.8,-8.23,-10.85,-11.81,0,*51
1486670438.31,29746,10.44,73808.0,-8.21,-10.79,-11.67,0,*5B
1486670439.57,29747,10.44,73808.8,-8.21,-10.79,-11.67,0,*5A
1486670440.83,29748,10.44,73806.8,-8.21,-10.79,-11.55,0,*54
1486670442.13,29749,10.44,73804.0,-8.23,-10.67,-11.55,0,*58
1486670443.39,29750,10.44,73806.3,-8.21,-10.71,-11.55,0,*55
1486670444.66,29751,10.44,73806.5,-8.21,-10.79,-11.93,0,*56
1486670445.92,29752,10.44,73802.3,-8.21,-10.79,-11.85,0,*52
1486670447.17,29753,10.44,73802.8,-8.21,-10.79,-11.81,0,*57
1486670448.46,29754,10.44,73802.0,-8.23,-10.79,-11.63,0,*5E
1486670449.72,29755,10.44,73804.8,-8.23,-10.85,-11.81,0,*50
1486670450.98,29756,10.44,73804.5,-8.23,-10.97,-12.07,0,*5D
1486670452.22,29757,10.44,73804.5,-8.21,-10.97,-12.11,0,*59
1486670453.51,29758,10.44,73802.3,-8.23,-10.71,-11.55,0,*5F
1486670454.8,29759,10.44,73802.0,-8.23,-10.67,-11.37,0,*5D
1486670456.09,29760,10.44,73802.0,-8.23,-10.71,-11.51,0,*50
1486670457.35,29761,10.44,73800.5,-8.21,-10.71,-11.55,0,*57
1486670458.62,29762,10.44,73802.5,-8.21,-10.71,-11.63,0,*51
1486670459.91,29763,10.44,73802.8,-8.23,-10.79,-11.67,0,*5E
1486670461.2,29764,10.44,73802.3,-8.23,-10.67,-11.63,0,*52
1486670462.49,29765,10.44,73800.0,-8.23,-10.71,-11.55,0,*51
1486670463.78,29766,10.44,73798.8,-8.23,-10.67,-11.37,0,*51
1486670465.05,29767,10.44,73800.0,-8.23,-10.67,-11.41,0,*51
1486670466.28,29768,10.44,73802.5,-8.25,-10.63,-11.45,0,*58
1486670467.54,29769,10.44,73800.0,-8.23,-10.57,-11.51,0,*5D
1486670468.83,29770,10.44,73806.3,-8.23,-10.71,-11.55,0,*55
1486670470.1,29771,10.44,73800.8,-8.21,-10.67,-11.63,0,*54
1486670471.37,29772,10.44,73800.5,-8.23,-10.57,-11.55,0,*53
1486670472.63,29773,10.44,73800.5,-8.23,-10.57,-11.55,0,*52
1486670473.89,29774,10.44,73804.3,-8.23,-10.57,-11.55,0,*55
1486670475.17,29775,10.44,73808.0,-8.23,-10.71,-11.81,0,*59
1486670476.46,29776,10.44,73814.3,-8.23,-10.71,-11.67,0,*52
1486670477.75,29777,10.44,73808.0,-8.23,-10.71,-11.85,0,*5F
1486670479.04,29778,10.5,73808.5,-8.23,-10.71,-11.67,0,*5C
1486670480.33,29779,10.44,73810.8,-8.23,-10.67,-11.55,0,*5B
1486670481.57,29780,10.44,73808.5,-8.23,-10.57,-11.41,0,*5B
1486670482.86,29781,10.44,73806.0,-8.23,-10.67,-11.51,0,*58
1486670484.12,29782,10.44,73808.0,-8.21,-10.71,-11.63,0,*5F
1486670485.41,29783,10.44,73804.0,-8.23,-10.71,-11.67,0,*58
1486670486.7,29784,10.44,73810.0,-8.23,-10.71,-11.51,0,*5A
1486670487.99,29785,10.44,73810.5,-8.23,-10.67,-11.63,0,*5D
1486670489.28,29786,10.44,73804.8,-8.23,-10.71,-11.55,0,*5C
1486670490.57,29787,10.44,73812.3,-8.23,-10.67,-11.51,0,*5E
1486670491.83,29788,10.44,73810.0,-8.23,-10.85,-11.81,0,*50
1486670493.11,29789,10.5,73812.8,-8.23,-10.71,-11.55,0,*53
1486670494.35,29790,10.44,73806.3,-8.23,-10.57,-11.41,0,*5A
1486670495.59,29791,10.44,73808.0,-8.23,-10.57,-11.41,0,*5B
1486670496.87,29792,10.44,73804.5,-8.23,-10.79,-11.97,0,*5F
1486670498.16,29793,10.44,73806.5,-8.23,-10.71,-11.67,0,*59
1486670499.45,29794,10.44,73804.3,-8.23,-10.71,-11.67,0,*5E
1486670500.74,29795,10.44,73808.3,-8.23,-10.71,-11.67,0,*5F
1486670502.03,29796,10.5,73812.5,-8.23,-10.79,-11.63,0,*50
1486670503.31,29797,10.44,73808.8,-8.23,-10.79,-11.85,0,*59
1486670504.59,29798,10.44,73814.5,-8.23,-10.71,-11.81,0,*5A
1486670505.89,29799,10.44,73812.3,-8.23,-10.67,-11.67,0,*54
1486670507.14,29800,10.44,73814.0,-8.23,-10.85,-11.97,0,*58
1486670508.37,29801,10.5,73820.0,-8.25,-10.89,-12.15,0,*5A
1486670509.66,29802,10.44,73812.5,-8.27,-10.63,-11.55,0,*58
1486670510.92,29803,10.44,73816.3,-8.25,-10.71,-11.55,0,*58
1486670512.18,29804,10.44,73818.8,-8.25,-10.71,-11.59,0,*53
1486670513.44,29805,10.44,73820.5,-8.25,-10.71,-11.55,0,*5E
1486670514.71,29806,10.44,73822.5,-8.27,-10.63,-11.41,0,*59
1486670515.96,29807,10.44,73814.8,-8.27,-10.75,-11.41,0,*5F
1486670517.23,29808,10.44,73816.3,-8.25,-10.75,-11.67,0,*56
1486670518.46,29809,10.44,73812.8,-8.25,-10.85,-11.67,0,*58
1486670519.69,29810,10.44,73808.3,-8.25,-10.71,-11.45,0,*5B
1486670520.93,29811,10.44,73810.8,-8.25,-10.63,-11.45,0,*59
1486670522.17,29812,10.44,73808.3,-8.25,-10.63,-11.45,0,*5A
1486670523.45,29813,10.44,73810.8,-8.27,-10.75,-11.89,0,*5E
1486670524.71,29814,10.44,73810.3,-8.27,-10.89,-11.89,0,*5A
1486670525.97,29815,10.44,73802.8,-8.25,-10.71,-11.67,0,*5E
1486670527.23,29816,10.44,73804.0,-8.25,-10.71,-11.55,0,*5C
1486670528.47,29817,10.44,73806.8,-8.25,-10.71,-11.45,0,*5C
1486670529.73,29818,10.44,73814.0,-8.25,-10.63,-11.55,0,*51
1486670530.99,29819,10.44,73814.5,-8.27,-10.85,-11.67,0,*5B
1486670532.22,29820,10.44,73812.3,-8.25,-10.85,-11.85,0,*5F
1486670533.48,29821,10.44,73810.0,-8.25,-10.63,-11.59,0,*57
1486670534.71,29822,10.44,73818.5,-8.25,-10.75,-11.41,0,*5A
1486670535.97,29823,10.44,73814.3,-8.27,-10.75,-11.45,0,*5D
1486670537.25,29824,10.44,73810.8,-8.27,-10.75,-11.59,0,*57
1486670538.48,29825,10.44,73808.8,-8.25,-10.85,-11.73,0,*53
1486670539.73,29826,10.44,73814.5,-8.27,-10.85,-11.73,0,*52
1486670540.97,29827,10.44,73812.3,-8.25,-10.85,-11.67,0,*54
1486670542.22,29828,10.44,73816.3,-8.27,-10.93,-11.73,0,*5B
1486670543.46,29829,10.44,73816.0,-8.25,-10.93,-11.67,0,*5D
1486670544.72,29830,10.44,73818.0,-8.27,-10.85,-11.67,0,*50
1486670545.97,29831,10.44,73822.3,-8.27,-10.85,-11.59,0,*5C
1486670547.25,29832,10.44,73816.8,-8.27,-10.75,-11.55,0,*5C
1486670548.53,29833,10.44,73816.5,-8.27,-10.75,-11.67,0,*5C
1486670549.79,29834,10.44,73816.0,-8.27,-10.71,-11.45,0,*5F
1486670551.06,29835,10.44,73816.3,-8.27,-10.71,-11.41,0,*5A
1486670552.34,29836,10.44,73816.3,-8.27,-10.75,-11.55,0,*58
1486670553.6,29837,10.44,73822.0,-8.27,-10.75,-11.45,0,*58
1486670554.86,29838,10.44,73822.8,-8.25,-10.75,-11.55,0,*54
1486670556.14,29839,10.44,73824.3,-8.27,-10.75,-11.67,0,*56
1486670557.39,29840,10.44,73820.8,-8.27,-10.89,-11.85,0,*57
1486670558.65,29841,10.44,73820.3,-8.27,-10.85,-11.85,0,*5A
1486670559.9,29842,10.44,73820.0,-8.27,-10.89,-11.67,0,*59
1486670561.14,29843,10.44,73824.5,-8.29,-10.93,-11.89,0,*5D
1486670562.4,29844,10.44,73820.5,-8.27,-10.89,-11.73,0,*5A
1486670563.64,29845,10.44,73816.5,-8.29,-10.93,-11.89,0,*5B
1486670564.86,29846,10.44,73814.0,-8.29,-10.97,-12.03,0,*5D
1486670566.07,29847,10.44,73812.3,-8.29,-10.93,-12.03,0,*58
1486670567.31,29848,10.44,73814.5,-8.29,-11.11,-12.07,0,*58
1486670568.57,29849,10.44,73810.3,-8.27,-11.01,-12.11,0,*51
1486670569.81,29850,10.44,73808.5,-8.27,-11.01,-12.03,0,*5A
1486670571.07,29851,10.44,73810.8,-8.33,-11.07,-12.07,0,*5C
1486670572.32,29852,10.44,73808.5,-8.29,-10.97,-12.07,0,*5C
1486670573.55,29853,10.44,73812.3,-8.29,-10.89,-11.93,0,*5C
1486670574.8,29854,10.44,73816.0,-8.29,-10.93,-11.89,0,*5B
1486670576.04,29855,10.44,73814.8,-8.29,-10.93,-12.07,0,*5F
1486670577.28,29856,10.44,73810.5,-8.29,-10.97,-12.15,0,*5B
1486670578.53,29857,10.44,73808.3,-8.33,-10.75,-11.59,0,*56
1486670579.8,29858,10.44,73806.8,-8.33,-10.67,-11.37,0,*52
1486670581.06,29859,10.44,73808.5,-8.29,-10.67,-11.51,0,*58
1486670582.32,29860,10.44,73810.3,-8.27,-10.85,-11.73,0,*50
1486670583.55,29861,10.44,73800.8,-8.29,-10.89,-11.93,0,*5D
1486670584.81,29862,10.44,73808.3,-8.29,-10.79,-11.73,0,*5F
1486670586.05,29863,10.44,73808.3,-8.29,-10.89,-11.73,0,*51
1486670587.31,29864,10.44,73808.5,-8.29,-11.07,-12.15,0,*52
1486670588.55,29865,10.44,73808.8,-8.29,-11.07,-12.29,0,*5C
1486670589.79,29866,10.44,73808.8,-8.33,-11.07,-12.21,0,*5C
1486670591.06,29867,10.44,73806.8,-8.33,-11.07,-12.07,0,*59
1486670592.27,29868,10.44,73810.5,-8.29,-10.93,-12.03,0,*55
1486670593.51,29869,10.44,73812.0,-8.29,-10.89,-11.89,0,*5E
1486670594.74,29870,10.44,73816.3,-8.33,-10.93,-11.77,0,*57
1486670595.98,29871,10.44,73820.8,-8.33,-10.89,-11.89,0,*5C
1486670597.21,29872,10.44,73814.8,-8.33,-10.89,-11.89,0,*5F
1486670598.45,29873,10.44,73812.5,-8.33,-10.89,-11.93,0,*55
1486670599.67,29874,10.44,73814.5,-8.29,-10.97,-12.03,0,*5C
1486670600.93,29875,10.44,73820.8,-8.33,-11.07,-12.07,0,*5A
1486670602.17,29876,10.44,73818.3,-8.29,-10.97,-12.15,0,*59
1486670603.41,29877,10.44,73822.0,-8.29,-10.93,-12.07,0,*5F
1486670604.65,29878,10.44,73818.0,-8.33,-10.97,-12.15,0,*5C
1486670605.89,29879,10.44,73818.5,-8.29,-10.97,-12.15,0,*56
1486670607.13,29880,10.44,73814.8,-8.29,-10.97,-12.15,0,*50
1486670608.34,29881,10.44,73812.3,-8.33,-10.89,-12.03,0,*52
1486670609.57,29882,10.44,73814.5,-8.29,-10.89,-11.77,0,*5A
1486670610.81,29883,10.44,73808.3,-8.33,-10.89,-11.63,0,*55
1486670612.04,29884,10.44,73806.0,-8.33,-10.89,-11.63,0,*52
1486670613.28,29885,10.44,73804.3,-8.33,-10.93,-11.89,0,*5C
1486670614.52,29886,10.44,73806.5,-8.33,-10.89,-11.93,0,*5F
1486670615.76,29887,10.44,73810.0,-8.33,-10.97,-11.89,0,*5A
1486670617.0,29888,10.44,73804.8,-8.29,-11.07,-12.03,0,*57
1486670618.21,29889,10.44,73810.0,-8.33,-11.19,-12.21,0,*52
1486670619.41,29890,10.44,73802.3,-8.33,-11.19,-12.29,0,*52
1486670620.67,29891,10.44,73804.3,-8.33,-11.07,-12.15,0,*53
1486670621.9,29892,10.44,73810.8,-8.33,-10.89,-11.77,0,*50
1486670623.15,29893,10.44,73808.5,-8.29,-10.93,-11.89,0,*50
1486670624.41,29894,10.44,73814.8,-8.33,-11.07,-12.07,0,*55
1486670625.65,29895,10.44,73814.8,-8.33,-10.93,-11.93,0,*56
1486670626.89,29896,10.44,73812.8,-8.33,-10.93,-11.93,0,*55
1486670628.12,29897,10.44,73808.0,-8.33,-10.93,-11.89,0,*5F
1486670629.36,29898,10.44,73818.8,-8.33,-10.89,-11.89,0,*5B
1486670630.6,29899,10.44,73814.0,-8.33,-10.97,-11.93,0,*5E
1486670631.84,29900,10.44,73816.3,-8.33,-10.89,-11.63,0,*5F
1486670633.07,29901,10.44,73814.5,-8.33,-10.93,-11.59,0,*5C
1486670634.3,29902,10.44,73814.8,-8.33,-10.89,-11.77,0,*58
1486670635.56,29903,10.44,73818.5,-8.35,-10.93,-11.77,0,*54
1486670636.82,29904,10.44,73818.5,-8.35,-10.93,-11.67,0,*52
1486670638.08,29905,10.44,73818.8,-8.35,-10.93,-11.77,0,*52
1486670639.34,29906,10.44,73816.0,-8.35,-10.97,-11.81,0,*5C
1486670640.6,29907,10.44,73812.8,-8.35,-10.97,-11.81,0,*5D
1486670641.86,29908,10.44,73816.3,-8.35,-10.93,-11.81,0,*56
1486670643.12,29909,10.44,73808.0,-8.35,-10.93,-11.97,0,*50
1486670644.41,29910,10.44,73808.3,-8.35,-10.79,-11.67,0,*53
1486670645.67,29911,10.44,73808.8,-8.35,-10.85,-11.55,0,*50
1486670646.93,29912,10.44,73808.5,-8.33,-10.75,-11.63,0,*5F
1486670648.19,29913,10.44,73808.3,-8.33,-10.67,-11.51,0,*5C
1486670649.45,29914,10.44,73806.5,-8.33,-10.79,-11.73,0,*54
1486670650.72,29915,10.44,73812.5,-8.33,-10.67,-11.63,0,*5B
1486670651.98,29916,10.44,73812.5,-8.33,-10.79,-11.89,0,*53
1486670653.24,29917,10.44,73812.3,-8.33,-10.79,-11.77,0,*53
1486670654.5,29918,10.44,73814.5,-8.33,-10.67,-11.73,0,*57
1486670655.76,29919,10.44,73812.0,-8.33,-10.79,-11.73,0,*59
1486670657.03,29920,10.44,73808.8,-8.33,-10.67,-11.63,0,*5D
1486670658.29,29921,10.44,73806.5,-8.33,-10.67,-11.59,0,*55
1486670659.55,29922,10.44,73810.3,-8.33,-10.79,-11.73,0,*51
1486670660.81,29923,10.44,73806.3,-8.33,-10.79,-11.77,0,*54
1486670662.06,29924,10.44,73804.0,-8.33,-10.75,-11.73,0,*5B
1486670663.33,29925,10.44,73806.3,-8.33,-10.67,-11.59,0,*51
1486670664.59,29926,10.44,73808.8,-8.33,-10.79,-11.73,0,*55
1486670665.85,29927,10.44,73814.8,-8.29,-10.79,-11.89,0,*5A
1486670667.11,29928,10.44,73818.8,-8.33,-10.79,-11.89,0,*5E
1486670668.37,29929,10.44,73810.0,-8.29,-10.63,-11.59,0,*52
1486670669.64,29930,10.44,73820.3,-8.29,-10.75,-11.59,0,*5D
1486670670.89,29931,10.44,73820.0,-8.33,-10.75,-11.73,0,*5F
1486670672.16,29932,10.44,73818.8,-8.29,-10.75,-11.73,0,*57
1486670673.42,29933,10.44,73820.8,-8.29,-10.75,-11.63,0,*57
1486670674.69,29934,10.44,73824.5,-8.29,-10.63,-11.59,0,*5E
1486670675.94,29935,10.44,73820.0,-8.29,-10.75,-11.77,0,*54
1486670677.21,29936,10.44,73822.5,-8.29,-10.79,-11.63,0,*5E
1486670678.48,29937,10.44,73820.8,-8.29,-10.63,-11.59,0,*5D
1486670679.73,29938,10.44,73822.5,-8.33,-10.63,-11.37,0,*51
1486670680.99,29939,10.44,73822.5,-8.29,-10.79,-11.73,0,*50
1486670682.26,29940,10.44,73820.0,-8.29,-10.79,-11.89,0,*5B
1486670683.52,29941,10.44,73822.5,-8.33,-10.79,-11.89,0,*51
1486670684.75,29942,10.44,73818.5,-8.33,-10.79,-12.03,0,*53
1486670686.02,29943,10.44,73824.5,-8.29,-10.79,-11.93,0,*53
1486670687.29,29944,10.44,73826.0,-8.29,-10.67,-11.73,0,*55
1486670688.56,29945,10.44,73822.8,-8.33,-10.67,-11.63,0,*5E
1486670689.82,29946,10.44,73822.3,-8.33,-10.79,-11.63,0,*52
1486670691.08,29947,10.44,73818.8,-8.29,-10.75,-11.59,0,*5D
1486670692.34,29948,10.44,73814.3,-8.33,-10.63,-11.59,0,*5E
1486670693.55,29949,10.44,73816.5,-8.33,-10.53,-11.45,0,*51
1486670694.75,29950,10.44,73822.3,-8.33,-10.53,-11.23,0,*59
1486670696.01,29951,10.44,73818.8,-8.29,-10.67,-11.51,0,*51
1486670697.28,29952,10.44,73816.8,-8.33,-10.63,-11.63,0,*5C
1486670698.54,29953,10.44,73818.3,-8.33,-10.63,-11.59,0,*54
1486670699.81,29954,10.44,73812.0,-8.29,-10.67,-11.59,0,*5C
1486670701.04,29955,10.5,73812.8,-8.33,-10.53,-11.37,0,*59
1486670702.26,29956,10.44,73814.0,-8.29,-10.53,-11.37,0,*51
1486670703.52,29957,10.5,73814.0,-8.29,-10.79,-11.77,0,*5C
1486670704.79,29958,10.44,73814.3,-8.29,-10.79,-11.93,0,*59
1486670706.05,29959,10.44,73810.3,-8.29,-10.67,-11.77,0,*5D
1486670707.31,29960,10.44,73818.5,-8.29,-10.63,-11.51,0,*57
1486670708.59,29961,10.44,73818.3,-8.29,-10.67,-11.63,0,*53
1486670709.85,29962,10.44,73824.8,-8.33,-10.67,-11.59,0,*52
1486670711.11,29963,10.44,73824.3,-8.29,-10.79,-11.59,0,*57
1486670712.37,29964,10.44,73816.0,-8.29,-10.75,-11.73,0,*54
1486670713.63,29965,10.44,73816.5,-8.29,-10.79,-11.73,0,*59
1486670714.9,29966,10.44,73804.8,-8.29,-10.79,-11.89,0,*5F
1486670716.17,29967,10.44,73806.5,-8.29,-10.67,-11.59,0,*5C
1486670717.43,29968,10.44,73806.3,-8.29,-10.67,-11.73,0,*5B
1486670718.69,29969,10.44,73810.8,-8.33,-10.63,-11.59,0,*5D
1486670719.96,29970,10.44,73812.0,-8.29,-10.67,-11.59,0,*5A
1486670721.22,29971,10.44,73810.0,-8.33,-10.63,-11.51,0,*5C
1486670722.49,29972,10.44,73810.5,-8.33,-10.75,-11.63,0,*59
1486670723.74,29973,10.44,73808.5,-8.33,-10.79,-11.77,0,*51
1486670725.0,29974,10.44,73808.0,-8.29,-10.79,-12.07,0,*59
1486670726.27,29975,10.44,73812.3,-8.29,-10.63,-11.51,0,*53
1486670727.53,29976,10.44,73808.8,-8.29,-10.67,-11.59,0,*5C
1486670728.8,29977,10.44,73810.0,-8.29,-10.75,-11.63,0,*57
1486670730.06,29978,10.44,73806.8,-8.29,-10.75,-11.77,0,*5D
1486670731.32,29979,10.44,73806.5,-8.29,-10.75,-11.77,0,*5C
1486670732.55,29980,10.44,73798.0,-8.33,-10.79,-12.03,0,*5D
1486670733.83,29981,10.44,73802.0,-8.29,-10.67,-11.63,0,*5D
1486670735.1,29982,10.44,73800.3,-8.29,-10.67,-11.63,0,*5E
1486670736.34,29983,10.44,73800.0,-8.29,-10.53,-11.63,0,*58
1486670737.6,29984,10.44,73804.0,-8.33,-10.75,-11.89,0,*54
1486670738.86,29985,10.44,73796.8,-8.29,-10.79,-11.89,0,*52
1486670740.12,29986,10.44,73796.3,-8.33,-10.75,-11.73,0,*53
1486670741.39,29987,10.44,73796.5,-8.29,-10.67,-11.73,0,*5A
1486670742.65,29988,10.44,73794.5,-8.29,-10.67,-11.59,0,*5D
1486670743.92,29989,10.44,73796.8,-8.29,-10.67,-11.59,0,*5C
1486670745.16,29990,10.44,73794.5,-8.29,-10.79,-12.03,0,*57
1486670746.42,29991,10.44,73798.0,-8.29,-10.79,-12.15,0,*51
1486670747.65,29992,10.44,73796.3,-8.33,-10.93,-12.07,0,*5E
1486670748.87,29993,10.44,73796.5,-8.29,-10.97,-12.29,0,*5C
1486670750.09,29994,10.44,73792.3,-8.33,-10.97,-12.29,0,*50
1486670751.31,29995,10.44,73794.0,-8.29,-10.97,-12.21,0,*52
1486670752.53,29996,10.44,73792.5,-8.29,-10.97,-12.21,0,*51
1486670753.77,29997,10.44,73796.0,-8.29,-10.89,-12.07,0,*5B
1486670755.0,29998,10.44,73796.5,-8.29,-10.89,-12.15,0,*57
1486670756.24,29999,10.44,73800.3,-8.33,-10.89,-12.07,0,*5E
1486670757.48,30000,10.44,73796.8,-8.29,-11.07,-12.21,0,*57
1486670758.74,30001,10.44,73798.3,-8.33,-11.07,-12.35,0,*58
1486670759.98,30002,10.44,73800.3,-8.33,-10.93,-12.07,0,*56
1486670761.24,30003,10.44,73800.5,-8.33,-11.07,-12.15,0,*58
1486670762.45,30004,10.44,73800.5,-8.29,-10.89,-12.03,0,*54
1486670763.69,30005,10.44,73796.8,-8.33,-10.93,-12.15,0,*52
1486670764.92,30006,10.44,73802.5,-8.33,-10.89,-11.89,0,*5C
1486670766.16,30007,10.44,73802.8,-8.33,-10.89,-11.93,0,*56
1486670767.37,30008,10.44,73810.3,-8.33,-10.97,-12.21,0,*5C
1486670768.59,30009,10.44,73806.8,-8.33,-10.97,-12.29,0,*55
1486670769.85,30010,10.44,73806.3,-8.33,-11.07,-12.35,0,*58
1486670771.09,30011,10.44,73812.0,-8.33,-10.97,-12.15,0,*53
1486670772.34,30012,10.44,73812.8,-8.33,-10.97,-11.93,0,*5D
1486670773.57,30013,10.44,73814.0,-8.33,-10.93,-11.93,0,*58
1486670774.81,30014,10.44,73812.5,-8.33,-10.89,-11.93,0,*54
1486670776.07,30015,10.44,73814.0,-8.35,-10.93,-12.07,0,*56
1486670777.33,30016,10.44,73810.5,-8.29,-10.75,-11.73,0,*50
1486670778.59,30017,10.44,73808.3,-8.33,-10.79,-11.77,0,*52
1486670779.85,30018,10.5,73810.8,-8.33,-10.79,-11.93,0,*57
1486670781.08,30019,10.44,73802.3,-8.33,-10.89,-11.93,0,*59
1486670782.29,30020,10.44,73802.0,-8.33,-10.89,-12.03,0,*59
1486670783.52,30021,10.44,73808.0,-8.33,-10.89,-11.73,0,*5C
1486670784.79,30022,10.44,73802.5,-8.35,-10.93,-11.93,0,*5C
1486670786.05,30023,10.44,73804.0,-8.35,-10.85,-11.93,0,*5A
1486670787.31,30024,10.44,73804.5,-8.35,-10.85,-11.93,0,*5D
1486670788.55,30025,10.44,73802.8,-8.33,-10.79,-12.03,0,*53
1486670789.78,30026,10.44,73802.3,-8.33,-10.93,-11.93,0,*5E
1486670790.99,30027,10.44,73804.3,-8.33,-10.89,-12.03,0,*5E
1486670792.23,30028,10.44,73806.8,-8.29,-10.89,-11.93,0,*50
1486670793.44,30029,10.5,73808.0,-8.33,-10.93,-12.03,0,*5B
1486670794.68,30030,10.44,73806.0,-8.33,-10.93,-12.07,0,*57
1486670795.9,30031,10.44,73804.5,-8.33,-10.93,-12.21,0,*52
1486670797.11,30032,10.44,73804.8,-8.33,-10.93,-12.21,0,*51
1486670798.35,30033,10.44,73810.5,-8.29,-10.93,-12.07,0,*5F
1486670799.59,30034,10.44,73810.0,-8.33,-10.97,-12.15,0,*54
1486670800.82,30035,10.44,73810.8,-8.33,-10.93,-12.15,0,*51
1486670802.08,30036,10.44,73808.5,-8.35,-11.01,-12.11,0,*5A
1486670803.32,30037,10.44,73808.3,-8.35,-11.11,-12.25,0,*5D
1486670804.56,30038,10.44,73810.0,-8.37,-11.15,-12.35,0,*55
1486670805.82,30039,10.44,73808.0,-8.35,-11.15,-12.35,0,*56
1486670807.08,30040,10.44,73814.3,-8.35,-11.23,-12.35,0,*5D
1486670808.35,30041,10.44,73814.5,-8.35,-11.15,-12.35,0,*59
1486670809.61,30042,10.44,73814.5,-8.35,-11.23,-12.35,0,*5F
1486670810.82,30043,10.44,73812.5,-8.37,-11.15,-12.25,0,*58
1486670812.08,30044,10.44,73810.0,-8.35,-11.11,-11.97,0,*53
1486670813.29,30045,10.44,73806.8,-8.37,-11.11,-12.21,0,*5E
1486670814.53,30046,10.44,73804.5,-8.35,-11.11,-12.21,0,*5F
1486670815.73,30047,10.44,73806.5,-8.37,-11.15,-12.25,0,*5C
1486670816.97,30048,10.44,73800.3,-8.37,-11.15,-12.11,0,*54
1486670818.26,30049,10.44,73806.3,-8.39,-11.07,-12.11,0,*58
1486670819.49,30050,10.44,73808.5,-8.37,-11.01,-11.97,0,*55
1486670820.73,30051,10.44,73804.8,-8.37,-11.01,-11.81,0,*53
1486670821.99,30052,10.44,73804.0,-8.41,-11.07,-12.15,0,*59
1486670823.23,30053,10.44,73806.0,-8.37,-11.01,-12.07,0,*5C
1486670824.47,30054,10.44,73802.8,-8.37,-11.01,-11.93,0,*55
1486670825.68,30055,10.44,73808.3,-8.37,-11.01,-12.21,0,*5E
1486670826.93,30056,10.44,73812.0,-8.37,-10.97,-11.93,0,*59
1486670828.17,30057,10.44,73812.0,-8.37,-10.93,-11.93,0,*5C
1486670829.4,30058,10.44,73808.8,-8.37,-10.93,-11.97,0,*57
1486670830.64,30059,10.44,73810.8,-8.37,-10.97,-12.07,0,*58
1486670831.88,30060,10.44,73808.0,-8.37,-10.97,-12.11,0,*55
1486670833.09,30061,10.44,73812.0,-8.37,-11.11,-12.21,0,*58
1486670834.31,30062,10.44,73808.8,-8.37,-11.01,-12.21,0,*5A
1486670835.55,30063,10.5,73812.8,-8.37,-11.01,-12.11,0,*58
1486670836.76,30064,10.44,73810.0,-8.37,-11.01,-12.21,0,*5C
1486670837.97,30065,10.44,73808.5,-8.37,-11.11,-12.21,0,*5C
1486670839.21,30066,10.44,73806.3,-8.37,-11.23,-12.35,0,*5B
1486670840.45,30067,10.44,73808.5,-8.37,-11.15,-12.35,0,*5F
1486670841.66,30068,10.44,73806.0,-8.37,-11.23,-12.39,0,*59
1486670842.87,30069,10.44,73808.8,-8.37,-11.23,-12.25,0,*55
1486670844.1,30070,10.44,73806.3,-8.39,-11.19,-12.39,0,*57
1486670845.37,30071,10.44,73808.0,-8.39,-11.29,-12.39,0,*55
1486670846.6,30072,10.44,73808.5,-8.39,-11.19,-12.29,0,*54
1486670847.83,30073,10.44,73804.0,-8.39,-11.19,-12.39,0,*54
1486670849.06,30074,10.44,73806.0,-8.39,-11.19,-12.29,0,*52
1486670850.29,30075,10.44,73808.5,-8.39,-11.19,-12.29,0,*53
1486670851.55,30076,10.44,73804.0,-8.39,-11.07,-12.25,0,*53
1486670852.81,30077,10.44,73804.3,-8.39,-10.97,-12.15,0,*59
1486670854.04,30078,10.44,73810.0,-8.39,-11.01,-12.25,0,*5B
1486670855.31,30079,10.44,73808.5,-8.39,-10.97,-12.15,0,*57
1486670856.54,30080,10.44,73810.3,-8.41,-11.01,-12.15,0,*50
1486670857.78,30081,10.44,73806.5,-8.41,-10.97,-12.15,0,*5F
1486670859.04,30082,10.44,73808.0,-8.39,-11.01,-12.11,0,*59
1486670860.28,30083,10.44,73808.5,-8.39,-11.01,-12.25,0,*5F
1486670861.54,30084,10.44,73806.0,-8.39,-11.01,-12.15,0,*5B
1486670862.77,30085,10.44,73802.0,-8.39,-10.97,-12.25,0,*57
1486670864.01,30086,10.44,73800.0,-8.41,-11.15,-12.15,0,*53
1486670865.24,30087,10.44,73804.8,-8.41,-11.07,-12.25,0,*52
1486670866.48,30088,10.44,73810.5,-8.41,-11.01,-12.15,0,*58
1486670867.74,30089,10.44,73804.8,-8.39,-10.97,-12.11,0,*5C
1486670868.98,30090,10.44,73806.8,-8.41,-11.01,-12.15,0,*51
1486670870.19,30091,10.44,73810.0,-8.41,-11.01,-12.25,0,*53
1486670871.43,30092,10.44,73810.0,-8.41,-11.07,-12.25,0,*56
1486670872.64,30093,10.44,73808.5,-8.41,-11.01,-12.25,0,*51
1486670873.88,30094,10.44,73810.0,-8.41,-11.07,-12.39,0,*5D
1486670875.09,30095,10.44,73808.8,-8.41,-11.15,-12.39,0,*5F
1486670876.29,30096,10.44,73806.8,-8.41,-11.15,-12.43,0,*51
1486670877.53,30097,10.44,73806.5,-8.41,-11.19,-12.53,0,*5D
1486670878.79,30098,10.44,73798.3,-8.39,-11.29,-12.43,0,*5F
1486670880.07,30099,10.44,73796.5,-8.43,-11.37,-12.57,0,*59
1486670881.27,30100,10.44,73802.3,-8.41,-11.19,-12.43,0,*53
1486670882.53,30101,10.44,73800.8,-8.41,-11.29,-12.65,0,*55
1486670883.8,30102,10.44,73800.0,-8.41,-11.29,-12.57,0,*57
1486670885.05,30103,10.44,73800.8,-8.41,-11.33,-12.57,0,*5D
1486670886.31,30104,10.44,73804.0,-8.41,-11.33,-12.57,0,*5A
1486670887.55,30105,10.44,73806.0,-8.41,-11.29,-12.43,0,*55
1486670888.79,30106,10.44,73808.8,-8.41,-11.29,-12.43,0,*56
1486670890.06,30107,10.44,73802.5,-8.41,-11.29,-12.53,0,*56
1486670891.28,30108,10.44,73806.3,-8.45,-11.23,-12.43,0,*56
1486670892.56,30109,10.44,73808.5,-8.43,-11.33,-12.57,0,*55
1486670893.84,30110,10.44,73806.5,-8.43,-11.33,-12.57,0,*5D
1486670895.07,30111,10.44,73810.5,-8.43,-11.23,-12.47,0,*5C
1486670896.36,30112,10.44,73804.3,-8.43,-11.33,-12.57,0,*5F
1486670897.64,30113,10.44,73810.0,-8.43,-11.33,-12.57,0,*5E
1486670898.92,30114,10.44,73810.0,-8.43,-11.33,-12.57,0,*59
1486670900.19,30115,10.44,73808.3,-8.45,-11.33,-12.57,0,*5E